Regional Weather Roundup
Issued by NWS

Home | Current Version | Previous Version | Graphics & Text | Print | Product List | Glossary On
Versions: 1 2 3 4 5 6 7 8 9 10 11 12 13 14 15 16 17 18 19 20 21 22 23 24 25 26 27 28
000
ASUS45 KCYS 161210
RWRWY

WYOMING REGIONAL WEATHER ROUNDUP
NATIONAL WEATHER SERVICE CHEYENNE WY
600 AM MDT WED APR 16 2014

NOTE:  "FAIR" INDICATES FEW OR NO CLOUDS BELOW 12,000 FEET
WITH NO SIGNIFICANT WEATHER AND/OR OBSTRUCTIONS TO VISIBILITY.

WYZ001-161300-
YELLOWSTONE NATIONAL PARK

CITY           SKY/WX    TMP DP  RH WIND       PRES   REMARKS
LK YELLOWSTONE   N/A     17  13  84 NW3       29.96
6HR MIN TEMP:  12; 6HR MAX TEMP:  24;

W YELLOWSTONE  NOT AVBL

$$
WYZ002>013-054>058-071-098>099-161300-
NORTHERN WYOMING

CITY           SKY/WX    TMP DP  RH WIND       PRES   REMARKS
JACKSON        PTCLDY    21  19  93 NE6       29.97R WCI  14
CODY           PTCLDY    30  25  80 CALM      29.91R
GREYBULL       PTCLDY    36  31  82 NW18      29.90R WCI  26
6HR MIN TEMP:  36; 6HR MAX TEMP:  40; 6HR PCP: TRACE;

WORLAND        CLOUDY    36  30  79 NW6       29.92R WCI  31
6HR MIN TEMP:  35; 6HR MAX TEMP:  38;

SHERIDAN       CLOUDY    36  32  85 W18G25    29.89R WCI  26
6HR MIN TEMP:  35; 6HR MAX TEMP:  39;

BUFFALO        FLURRIES  33  29  85 NW23G35   29.87R WCI  21
6HR MIN TEMP:  33; 6HR MAX TEMP:  36; 6HR PCP: TRACE;

GILLETTE       PTCLDY    34  31  88 NW21      29.82R WCI  22
6HR MIN TEMP:  34; 6HR MAX TEMP:  37; 6HR PCP:  0.02;

HULETT         CLOUDY    36  32  87 NW8       29.79  WCI  29
NEWCASTLE      MIX PCPN  34  32  93 NW16G23   29.78  WCI  23

$$
WYZ014>020-022>026-101>103-161300-
CENTRAL WYOMING

CITY           SKY/WX    TMP DP  RH WIND       PRES   REMARKS
BIG PINEY      PTCLDY    16  10  77 N12       29.96R WCI   3
6HR MIN TEMP:  16; 6HR MAX TEMP:  29;

PINEDALE       MOSUNNY   19  14  79 NW9       29.95S WCI   9
DUBOIS         FAIR      25  14  63 W20       29.91R WCI  11
LANDER         PTCLDY    31  27  85 N3        29.91R
6HR MIN TEMP:  30; 6HR MAX TEMP:  36;

RIVERTON       MOCLDY    31  29  92 S3        29.91S
6HR MIN TEMP:  28; 6HR MAX TEMP:  37; 6HR PCP: TRACE;

CASPER         MOCLDY    28  25  88 SW3       29.87R
6HR MIN TEMP:  28; 6HR MAX TEMP:  33; 6HR PCP:  0.02;

DOUGLAS        CLOUDY    35  31  85 NW17      29.85R WCI  25
6HR MIN TEMP:  33; 6HR MAX TEMP:  40; 6HR PCP:  0.09;


$$
WYZ021-027>030-104>119-161300-
SOUTHERN WYOMING

CITY           SKY/WX    TMP DP  RH WIND       PRES   REMARKS
EVANSTON       CLOUDY    30  14  51 N8        29.98R WCI  22
6HR MIN TEMP:  28; 6HR MAX TEMP:  36;

FORT BRIDGER   FAIR      28  15  57 W8        30.00S WCI  20
ROCK SPRINGS   CLEAR     29  16  58 W16       29.93S WCI  17
6HR MIN TEMP:  28; 6HR MAX TEMP:  39;

DIXON          FAIR      30  24  79 S3        29.96R
RAWLINS        PTCLDY    25  21  85 N3        29.90R
6HR MIN TEMP:  25; 6HR MAX TEMP:  36;

SARATOGA       PTSUNNY   30  27  86 W7        29.90S WCI  23
LARAMIE        NOT AVBL
CHEYENNE       CLEAR     33  25  72 NW17G28   29.82R WCI  22
6HR MIN TEMP:  33; 6HR MAX TEMP:  42; 6HR PCP:  0.01;

TORRINGTON     MOCLDY    40  31  70 NW21G31   29.81R WCI  30
6HR MIN TEMP:  38; 6HR MAX TEMP:  53;

PINE BLUFFS    FAIR      32  30  93 NW12G17   29.80R WCI  23

$$



USA.gov is the U.S. government's official web portal to all federal, state and local government web resources and services.